This demonstration page uses our WeatherBlox Daily Observations layout. Learn more.

Left ArrowRight Arrow

41.55636, -103.73856

Hourly Observations for July 7, 2018

Temp ( °F °C ) Dew Point ( °F °C ) Humidity (%) Winds ( mph kmh ) Pressure ( in mb ) Visibility ( mi km ) Precip ( " mm )
12:58 am 00:58 Clear 66 18.7 58 14.4 76 76 S 8 13 30.16 1021 10 16 N/A
1:58 am 01:58 Clear 64 17.9 58 14.2 79 79 SSW 9 15 30.14 1021 10 16 N/A
2:58 am 02:58 Clear 64 17.6 58 14.2 81 81 SSW 8 13 30.13 1020 10 16 N/A
3:58 am 03:58 Clear 63 17 57 14 83 83 SSW 10 17 30.11 1020 10 16 N/A
4:58 am 04:58 Clear 61 16.1 57 13.9 87 87 S 9 15 30.11 1020 10 16 N/A
5:58 am 05:58 Sunny 60 15.5 56 13.6 89 89 S 5 7 30.11 1020 10 16 N/A
6:58 am 06:58 Sunny 63 17.1 58 14.7 86 86 SSW 10 17 30.11 1020 10 16 N/A
7:58 am 07:58 Sunny 69 20.3 60 15.5 74 74 SSW 9 15 30.11 1020 10 16 N/A
8:58 am 08:58 Sunny 76 24.2 61 16 60 60 SSW 7 11 30.11 1020 10 16 N/A
9:58 am 09:58 Sunny 83 28.2 55 12.8 39 39 SSW 16 26 30.08 1019 10 16 N/A
10:58 am 10:58 Sunny 85 29.7 52 11.3 32 32 S 20 31 30.07 1018 10 16 N/A
11:58 am 11:58 Sunny 88 30.9 50 10 27 27 S 16 26 30.06 1018 10 16 N/A
12:58 pm 12:58 Sunny 89 31.9 50 10 26 26 S 15 24 30.06 1018 10 16 N/A
1:58 pm 13:58 Sunny 91 32.7 47 8.5 22 22 S 10 17 30.04 1017 10 16 N/A
2:58 pm 14:58 Sunny 92 33.6 47 8.1 21 21 S 10 17 30.01 1016 10 16 N/A
3:58 pm 15:58 Sunny 93 33.8 48 8.7 21 21 S 15 24 29.99 1016 10 16 N/A
4:58 pm 16:58 Sunny 92 33.1 47 8.3 21 21 SSE 16 26 29.98 1015 10 16 N/A
5:58 pm 17:58 Sunny 90 32.4 46 7.6 21 21 SSE 14 22 29.98 1015 10 16 N/A
6:58 pm 18:58 Sunny 87 30.8 47 8.5 25 25 SSE 13 20 29.98 1015 10 16 N/A
7:58 pm 19:58 Sunny 79 26.1 48 9.1 34 34 SSE 12 19 30.00 1016 10 16 N/A
8:58 pm 20:58 Clear 76 24.4 51 10.4 41 41 SSE 13 20 30.01 1016 10 16 N/A
9:58 pm 21:58 Clear 74 23.4 54 12.4 50 50 SSE 14 22 30.02 1017 10 16 N/A
10:58 pm 22:58 Clear 72 22.4 55 12.7 54 54 S 9 15 30.02 1017 10 16 N/A
11:58 pm 23:58 Clear 70 21 55 13 60 60 S 6 9 30.02 1017 10 16 N/A

Powered by AerisWeather